Find Starlink 32849

NORAD ID: 62872 Int'l Des: 2025-022 Owner: SPXS Country: US Constellation: starlink operational
LEOCIRCULAR

現在のビュー

3D地球を読み込み中...

About Starlink 32849

Starlink 32849 (NORAD 62872) is a starlink constellation satellite (v2 mini) launched Feb 2, 2025 by SPXS of US. It operates in LEO, CIRCULAR orbit with a mass of 730.00 kg.

次回通過

Passes for default location (London). Set your location on the main map for personalized predictions.

高度履歴

Loading altitude history...

軌道要素

1 62872U 25022U 26263.43530597 .00010940 00000-0 33439-3 0 9990
2 62872 53.1626 301.7062 0001194 76.9372 283.1763 15.34405261 91762
Epoch: Sep 20, 2026 • Age: 15 hours

現在のステータス

高度 463.4 km
遠地点 / 近地点 N/A
速度 7.64 km/s
衛星直下点 25.59°N, 80.66°E
打ち上げ日 Feb 2, 2025
運用期間 1.6 years
タイプ internet

技術仕様

分類 Payload
質量 730.00 kg
乾燥質量 700.00 kg
長さ 0.30 m
スパン 29.00 m
形状 ? Box + pan
製造者 SPXS
バスタイプ Starlink V2M
フェーズステータス In Orbit
所有者/国 SPXS/US

Most Searched